Time,TemperatureF,DewpointF,PressureIn,WindDirection,WindDirectionDegrees,WindSpeedMPH,WindSpeedGustMPH,Humidity,HourlyPrecipIn,Conditions,Clouds,dailyrainin,SolarRadiationWatts/m^2,SoftwareType,DateUTC
2013-07-23 00:03:00,76.3,70.0,29.77,SSW,213,5.8,5.8,81,0.00,RA,,0.00,0.0,WeatherDisplay:10.37,2013-07-23 05:03:00,
2013-07-23 00:08:00,76.2,69.9,29.76,SSW,200,8.1,8.1,81,0.00,RA,,0.00,0.0,WeatherDisplay:10.37,2013-07-23 05:08:00,
2013-07-23 00:13:00,76.3,70.0,29.76,SW,218,4.6,4.6,81,0.00,CLR,,0.00,0.0,WeatherDisplay:10.37,2013-07-23 05:13:00,
2013-07-23 00:18:00,76.3,70.4,29.76,SW,219,5.8,5.8,82,0.00,CLR,,0.00,0.0,WeatherDisplay:10.37,2013-07-23 05:18:00,
2013-07-23 00:23:00,76.2,70.3,29.76,SW,235,9.2,9.2,82,0.00,CLR,,0.00,0.0,WeatherDisplay:10.37,2013-07-23 05:23:00,
2013-07-23 00:28:00,76.3,70.4,29.79,WNW,295,10.4,10.4,82,0.00,CLR,,0.00,0.0,WeatherDisplay:10.37,2013-07-23 05:28:00,
2013-07-23 00:33:00,76.4,70.5,29.80,WNW,291,13.8,13.8,82,0.00,SCT,,0.00,0.0,WeatherDisplay:10.37,2013-07-23 05:33:00,
2013-07-23 00:38:00,76.4,66.7,29.79,NW,321,27.6,27.6,72,0.00,SCT,,0.00,0.0,WeatherDisplay:10.37,2013-07-23 05:38:00,
2013-07-23 00:43:00,75.6,63.9,29.80,NNW,332,23.0,23.0,67,0.00,SCT,,0.00,0.0,WeatherDisplay:10.37,2013-07-23 05:43:00,
2013-07-23 00:48:00,73.5,63.9,29.79,NW,317,19.6,19.6,72,0.00,BKN,,0.00,0.0,WeatherDisplay:10.37,2013-07-23 05:48:00,
2013-07-23 00:53:00,71.7,64.5,29.79,NW,318,14.0,14.0,78,0.00,BKN,,0.00,0.0,WeatherDisplay:10.37,2013-07-23 05:53:00,
2013-07-23 00:58:00,70.7,64.2,29.79,NNW,340,15.0,15.0,80,0.00,BKN,,0.00,0.0,WeatherDisplay:10.37,2013-07-23 05:58:00,
2013-07-23 01:03:00,70.1,64.0,29.78,NW,314,15.0,15.0,81,0.00,OVC,,0.00,0.0,WeatherDisplay:10.37,2013-07-23 06:03:00,
2013-07-23 01:08:00,69.8,64.1,29.78,NW,315,11.5,11.5,82,0.00,OVC,,0.00,0.0,WeatherDisplay:10.37,2013-07-23 06:08:00,
2013-07-23 01:13:00,69.7,64.0,29.78,NNW,327,9.2,9.2,82,0.00,OVC,,0.00,0.0,WeatherDisplay:10.37,2013-07-23 06:13:00,
2013-07-23 01:18:00,69.7,64.0,29.78,WNW,303,6.0,6.0,82,0.00,OVC,,0.00,0.0,WeatherDisplay:10.37,2013-07-23 06:18:00,
2013-07-23 01:23:00,69.7,64.0,29.78,NW,315,6.0,6.0,82,0.00,OVC,,0.00,0.0,WeatherDisplay:10.37,2013-07-23 06:23:00,
2013-07-23 01:28:00,69.7,64.0,29.77,NW,304,4.0,4.0,82,0.00,OVC,,0.00,0.0,WeatherDisplay:10.37,2013-07-23 06:28:00,
2013-07-23 01:33:00,69.8,63.7,29.76,NW,321,3.5,3.5,81,0.00,BKN,,0.00,0.0,WeatherDisplay:10.37,2013-07-23 06:33:00,
2013-07-23 01:38:00,69.9,63.8,29.75,NW,316,2.3,2.3,81,0.00,BKN,,0.00,0.0,WeatherDisplay:10.37,2013-07-23 06:38:00,
2013-07-23 01:43:00,69.9,63.8,29.74,NW,316,0.0,0.1,81,0.00,BKN,,0.00,0.0,WeatherDisplay:10.37,2013-07-23 06:43:00,
2013-07-23 01:48:00,69.9,63.8,29.73,NW,316,0.0,0.0,81,0.00,CLR,,0.00,0.0,WeatherDisplay:10.37,2013-07-23 06:48:00,
2013-07-23 01:53:00,69.9,64.2,29.73,NW,316,2.3,2.3,82,0.00,CLR,,0.00,0.0,WeatherDisplay:10.37,2013-07-23 06:53:00,
2013-07-23 01:58:00,69.5,64.5,29.70,East,97,6.9,6.9,84,0.00,CLR,,0.00,0.0,WeatherDisplay:10.37,2013-07-23 06:58:00,
2013-07-23 02:03:00,68.7,64.3,29.70,ESE,123,5.0,5.0,86,0.00,CLR,,0.00,0.0,WeatherDisplay:10.37,2013-07-23 07:03:00,
2013-07-23 02:08:00,68.1,64.1,29.69,ESE,116,3.5,3.5,87,0.00,CLR,,0.00,0.0,WeatherDisplay:10.37,2013-07-23 07:08:00,
2013-07-23 02:13:00,67.7,64.0,29.68,ESE,115,3.5,3.5,88,0.00,CLR,,0.00,0.0,WeatherDisplay:10.37,2013-07-23 07:13:00,
2013-07-23 02:18:00,67.4,64.0,29.68,SSE,159,3.5,3.5,89,0.00,-RA,,0.00,0.0,WeatherDisplay:10.37,2013-07-23 07:18:00,
2013-07-23 02:23:00,67.4,64.0,29.66,SE,141,8.1,8.1,89,0.00,-RA,,0.00,0.0,WeatherDisplay:10.37,2013-07-23 07:23:00,
2013-07-23 02:28:00,67.4,64.0,29.67,SSE,157,6.9,6.9,89,0.00,-RA,,0.00,0.0,WeatherDisplay:10.37,2013-07-23 07:28:00,
2013-07-23 02:33:00,67.4,64.0,29.68,South,186,6.0,6.0,89,0.00,-RA,,0.00,0.0,WeatherDisplay:10.37,2013-07-23 07:33:00,
2013-07-23 02:38:00,67.5,63.8,29.69,SW,234,8.1,8.1,88,0.00,-RA,,0.00,0.0,WeatherDisplay:10.37,2013-07-23 07:38:00,
2013-07-23 02:43:00,67.8,63.8,29.69,WSW,247,4.6,4.6,87,0.00,-RA,,0.00,0.0,WeatherDisplay:10.37,2013-07-23 07:43:00,
2013-07-23 02:48:00,68.1,63.8,29.70,WSW,239,3.5,3.5,86,0.00,CLR,,0.00,0.0,WeatherDisplay:10.37,2013-07-23 07:48:00,
2013-07-23 02:53:00,68.4,63.7,29.70,SW,226,4.0,4.0,85,0.00,CLR,,0.00,0.0,WeatherDisplay:10.37,2013-07-23 07:53:00,
2013-07-23 02:58:00,68.5,63.8,29.70,SW,217,3.5,3.5,85,0.00,CLR,,0.00,0.0,WeatherDisplay:10.37,2013-07-23 07:58:00,
2013-07-23 03:03:00,68.6,63.9,29.70,SSW,197,3.5,3.5,85,0.00,CLR,,0.00,0.0,WeatherDisplay:10.37,2013-07-23 08:03:00,
2013-07-23 03:08:00,68.7,64.0,29.70,SW,218,2.3,2.3,85,0.00,CLR,,0.00,0.0,WeatherDisplay:10.37,2013-07-23 08:08:00,
2013-07-23 03:13:00,68.7,64.0,29.70,SSW,193,4.6,4.6,85,0.00,CLR,,0.00,0.0,WeatherDisplay:10.37,2013-07-23 08:13:00,
2013-07-23 03:18:00,68.6,64.2,29.70,South,185,4.0,4.0,86,0.00,CLR,,0.00,0.0,WeatherDisplay:10.37,2013-07-23 08:18:00,
2013-07-23 03:23:00,68.2,63.9,29.70,South,185,2.3,2.3,86,0.00,CLR,,0.00,0.0,WeatherDisplay:10.37,2013-07-23 08:23:00,
2013-07-23 03:28:00,67.8,63.8,29.70,South,185,2.3,2.3,87,0.00,CLR,,0.00,0.0,WeatherDisplay:10.37,2013-07-23 08:28:00,
2013-07-23 03:33:00,67.6,63.9,29.71,South,185,3.5,3.5,88,0.00,CLR,,0.00,0.0,WeatherDisplay:10.37,2013-07-23 08:33:00,
2013-07-23 03:38:00,67.6,64.2,29.72,SSW,203,3.5,3.5,89,0.00,CLR,,0.00,0.0,WeatherDisplay:10.37,2013-07-23 08:38:00,
2013-07-23 03:43:00,67.7,64.3,29.72,SSW,203,2.3,2.3,89,0.00,CLR,,0.00,0.0,WeatherDisplay:10.37,2013-07-23 08:43:00,
2013-07-23 03:48:00,67.9,64.5,29.72,SSW,208,3.5,3.5,89,0.00,CLR,,0.00,0.0,WeatherDisplay:10.37,2013-07-23 08:48:00,
2013-07-23 03:53:00,68.0,64.3,29.73,SW,229,3.5,3.5,88,0.00,CLR,,0.00,0.0,WeatherDisplay:10.37,2013-07-23 08:53:00,
2013-07-23 03:58:00,68.1,64.4,29.72,SSW,209,6.9,6.9,88,0.00,CLR,,0.00,0.0,WeatherDisplay:10.37,2013-07-23 08:58:00,
2013-07-23 04:03:00,68.3,64.3,29.73,SSW,207,6.9,6.9,87,0.00,CLR,,0.00,0.0,WeatherDisplay:10.37,2013-07-23 09:03:00,
2013-07-23 04:08:00,68.4,64.4,29.73,South,188,5.8,5.8,87,0.00,CLR,,0.00,0.0,WeatherDisplay:10.37,2013-07-23 09:08:00,
2013-07-23 04:13:00,68.4,64.4,29.72,South,184,6.0,6.0,87,0.00,CLR,,0.00,0.0,WeatherDisplay:10.37,2013-07-23 09:13:00,
2013-07-23 04:18:00,68.4,64.0,29.72,SSW,197,6.0,6.0,86,0.00,CLR,,0.00,0.0,WeatherDisplay:10.37,2013-07-23 09:18:00,
2013-07-23 04:23:00,68.3,63.9,29.72,SSW,200,4.6,4.6,86,0.00,CLR,,0.00,0.0,WeatherDisplay:10.37,2013-07-23 09:23:00,
2013-07-23 04:29:00,68.3,63.9,29.72,SSW,194,4.6,4.6,86,0.00,CLR,,0.00,0.0,WeatherDisplay:10.37,2013-07-23 09:29:00,
2013-07-23 04:34:00,68.1,64.1,29.73,South,191,4.6,4.6,87,0.00,CLR,,0.00,0.0,WeatherDisplay:10.37,2013-07-23 09:34:00,
2013-07-23 04:39:00,68.2,63.9,29.73,SW,230,4.6,4.6,86,0.00,CLR,,0.00,0.0,WeatherDisplay:10.37,2013-07-23 09:39:00,
2013-07-23 04:44:00,68.2,63.9,29.73,SW,229,6.9,6.9,86,0.00,CLR,,0.00,0.0,WeatherDisplay:10.37,2013-07-23 09:44:00,
2013-07-23 04:49:00,68.2,64.2,29.72,SSW,212,7.0,7.0,87,0.00,CLR,,0.00,0.0,WeatherDisplay:10.37,2013-07-23 09:49:00,
2013-07-23 04:54:00,68.4,64.0,29.72,SSW,205,6.9,6.9,86,0.00,CLR,,0.00,0.0,WeatherDisplay:10.37,2013-07-23 09:54:00,
2013-07-23 04:59:00,68.4,64.0,29.73,SSW,202,6.9,6.9,86,0.00,CLR,,0.00,0.0,WeatherDisplay:10.37,2013-07-23 09:59:00,
2013-07-23 05:04:00,68.4,64.0,29.73,SSW,205,8.1,8.1,86,0.00,CLR,,0.00,0.0,WeatherDisplay:10.37,2013-07-23 10:04:00,
2013-07-23 05:09:00,68.2,64.2,29.73,SW,217,6.9,6.9,87,0.00,CLR,,0.00,0.0,WeatherDisplay:10.37,2013-07-23 10:09:00,
2013-07-23 05:14:00,68.1,64.1,29.73,SSW,194,6.9,6.9,87,0.00,CLR,,0.00,0.0,WeatherDisplay:10.37,2013-07-23 10:14:00,
2013-07-23 05:19:00,68.0,64.0,29.73,SSW,204,6.9,6.9,87,0.00,CLR,,0.00,0.0,WeatherDisplay:10.37,2013-07-23 10:19:00,
2013-07-23 05:24:00,67.9,63.9,29.73,SSW,205,6.9,6.9,87,0.00,CLR,,0.00,0.0,WeatherDisplay:10.37,2013-07-23 10:24:00,
2013-07-23 05:29:00,68.0,64.3,29.73,SW,224,6.9,6.9,88,0.00,CLR,,0.00,0.0,WeatherDisplay:10.37,2013-07-23 10:29:00,
2013-07-23 05:34:00,68.0,64.0,29.73,SW,219,5.8,5.8,87,0.00,CLR,,0.00,0.0,WeatherDisplay:10.37,2013-07-23 10:34:00,
2013-07-23 05:39:00,67.9,63.9,29.74,SW,217,6.9,6.9,87,0.00,CLR,,0.00,0.0,WeatherDisplay:10.37,2013-07-23 10:39:00,
2013-07-23 05:44:00,67.9,63.9,29.74,WSW,241,6.9,6.9,87,0.00,CLR,,0.00,0.0,WeatherDisplay:10.37,2013-07-23 10:44:00,
2013-07-23 05:49:00,67.7,64.0,29.74,SW,227,6.9,6.9,88,0.00,CLR,,0.00,5.0,WeatherDisplay:10.37,2013-07-23 10:49:00,
2013-07-23 05:54:00,67.7,63.7,29.74,SW,227,6.9,6.9,87,0.00,CLR,,0.00,7.0,WeatherDisplay:10.37,2013-07-23 10:54:00,
2013-07-23 05:59:00,67.7,63.7,29.74,SW,218,4.6,4.6,87,0.00,CLR,,0.00,11.0,WeatherDisplay:10.37,2013-07-23 10:59:00,
2013-07-23 06:04:00,67.7,63.7,29.74,SW,236,8.1,8.1,87,0.00,CLR,,0.00,12.0,WeatherDisplay:10.37,2013-07-23 11:04:00,
2013-07-23 06:09:00,67.7,63.7,29.74,SW,221,5.8,5.8,87,0.00,CLR,,0.00,19.0,WeatherDisplay:10.37,2013-07-23 11:09:00,
2013-07-23 06:14:00,67.8,63.8,29.75,WSW,241,6.9,6.9,87,0.00,CLR,,0.00,30.0,WeatherDisplay:10.37,2013-07-23 11:14:00,
2013-07-23 06:19:00,68.0,64.0,29.75,WSW,246,8.1,8.1,87,0.00,CLR,,0.00,33.0,WeatherDisplay:10.37,2013-07-23 11:19:00,
2013-07-23 06:24:00,68.1,63.8,29.75,WSW,244,11.5,11.5,86,0.00,CLR,,0.00,30.0,WeatherDisplay:10.37,2013-07-23 11:24:00,
2013-07-23 06:29:00,68.2,63.9,29.75,SW,236,6.9,6.9,86,0.00,CLR,,0.00,25.0,WeatherDisplay:10.37,2013-07-23 11:29:00,
2013-07-23 06:34:00,68.2,63.9,29.75,West,267,6.9,6.9,86,0.00,BKN,,0.00,28.0,WeatherDisplay:10.37,2013-07-23 11:34:00,
2013-07-23 06:39:00,68.0,63.7,29.75,West,263,6.9,6.9,86,0.00,BKN,,0.00,37.0,WeatherDisplay:10.37,2013-07-23 11:39:00,
2013-07-23 06:44:00,67.9,63.9,29.75,West,278,6.9,6.9,87,0.00,BKN,,0.00,51.0,WeatherDisplay:10.37,2013-07-23 11:44:00,
2013-07-23 06:49:00,68.0,64.0,29.75,West,275,5.8,5.8,87,0.00,BKN,,0.00,58.0,WeatherDisplay:10.37,2013-07-23 11:49:00,
2013-07-23 06:54:00,68.2,64.2,29.75,WSW,246,8.1,8.1,87,0.00,BKN,,0.00,58.0,WeatherDisplay:10.37,2013-07-23 11:54:00,
2013-07-23 06:59:00,68.5,64.5,29.75,West,259,5.8,5.8,87,0.00,BKN,,0.00,81.0,WeatherDisplay:10.37,2013-07-23 11:59:00,
2013-07-23 07:04:00,68.8,64.8,29.75,WNW,282,8.1,8.1,87,0.00,SCT,,0.00,91.0,WeatherDisplay:10.37,2013-07-23 12:04:00,
2013-07-23 07:09:00,68.9,64.9,29.75,WSW,238,4.6,4.6,87,0.00,SCT,,0.00,81.0,WeatherDisplay:10.37,2013-07-23 12:09:00,
2013-07-23 07:14:00,69.0,65.0,29.75,WSW,248,6.0,6.0,87,0.00,SCT,,0.00,67.0,WeatherDisplay:10.37,2013-07-23 12:14:00,
2013-07-23 07:19:00,69.1,65.1,29.75,SW,234,5.0,5.0,87,0.00,SCT,,0.00,54.0,WeatherDisplay:10.37,2013-07-23 12:19:00,
2013-07-23 07:24:00,69.5,65.5,29.76,WSW,239,8.1,8.1,87,0.00,SCT,,0.00,74.0,WeatherDisplay:10.37,2013-07-23 12:24:00,
2013-07-23 07:29:00,69.8,65.4,29.75,West,260,10.4,10.4,86,0.00,SCT,,0.00,77.0,WeatherDisplay:10.37,2013-07-23 12:29:00,
2013-07-23 07:34:00,70.3,65.6,29.75,WSW,243,10.4,10.4,85,0.00,SCT,,0.00,77.0,WeatherDisplay:10.37,2013-07-23 12:34:00,
2013-07-23 07:39:00,70.6,65.5,29.75,WSW,248,9.2,9.2,84,0.00,SCT,,0.00,95.0,WeatherDisplay:10.37,2013-07-23 12:39:00,
2013-07-23 07:44:00,71.2,65.4,29.75,SW,228,10.0,10.0,82,0.00,SCT,,0.00,58.0,WeatherDisplay:10.37,2013-07-23 12:44:00,
2013-07-23 07:49:00,71.5,65.7,29.75,West,260,10.4,10.4,82,0.00,BKN,,0.00,53.0,WeatherDisplay:10.37,2013-07-23 12:49:00,
2013-07-23 07:54:00,72.0,65.5,29.75,West,259,6.9,6.9,80,0.00,BKN,,0.00,56.0,WeatherDisplay:10.37,2013-07-23 12:54:00,
2013-07-23 07:59:00,72.5,65.6,29.75,WSW,240,10.4,10.4,79,0.00,BKN,,0.00,81.0,WeatherDisplay:10.37,2013-07-23 12:59:00,
2013-07-23 08:04:00,72.6,65.3,29.75,NW,311,15.0,15.0,78,0.00,SCT,,0.00,137.0,WeatherDisplay:10.37,2013-07-23 13:04:00,
2013-07-23 08:09:00,72.7,65.4,29.75,NW,308,9.2,9.2,78,0.00,SCT,,0.00,178.0,WeatherDisplay:10.37,2013-07-23 13:09:00,
2013-07-23 08:14:00,72.9,65.3,29.75,WSW,255,13.8,13.8,77,0.00,SCT,,0.00,216.0,WeatherDisplay:10.37,2013-07-23 13:14:00,
2013-07-23 08:19:00,72.7,65.4,29.75,WSW,244,8.1,8.1,78,0.00,SCT,,0.00,330.0,WeatherDisplay:10.37,2013-07-23 13:19:00,
2013-07-23 08:24:00,72.8,65.9,29.75,WNW,301,8.1,8.1,79,0.00,SCT,,0.00,378.0,WeatherDisplay:10.37,2013-07-23 13:24:00,
2013-07-23 08:29:00,72.9,65.6,29.75,WSW,240,10.4,10.4,78,0.00,SCT,,0.00,417.0,WeatherDisplay:10.37,2013-07-23 13:29:00,
2013-07-23 08:34:00,73.3,66.0,29.75,WSW,256,8.0,8.0,78,0.00,SCT,,0.00,431.0,WeatherDisplay:10.37,2013-07-23 13:34:00,
2013-07-23 08:39:00,73.6,66.7,29.75,WNW,298,12.7,12.7,79,0.00,SCT,,0.00,445.0,WeatherDisplay:10.37,2013-07-23 13:39:00,
2013-07-23 08:44:00,73.8,66.1,29.76,WSW,255,9.2,9.2,77,0.00,SCT,,0.00,459.0,WeatherDisplay:10.37,2013-07-23 13:44:00,
2013-07-23 08:49:00,73.9,66.6,29.75,WNW,294,11.5,11.5,78,0.00,SCT,,0.00,480.0,WeatherDisplay:10.37,2013-07-23 13:49:00,
2013-07-23 08:54:00,74.3,67.0,29.75,WNW,290,8.0,8.0,78,0.00,SCT,,0.00,494.0,WeatherDisplay:10.37,2013-07-23 13:54:00,
2013-07-23 08:59:00,74.6,65.8,29.75,WNW,286,12.7,12.7,74,0.00,SCT,,0.00,510.0,WeatherDisplay:10.37,2013-07-23 13:59:00,
2013-07-23 09:04:00,74.6,66.1,29.75,NW,306,11.5,11.5,75,0.00,SCT,,0.00,526.0,WeatherDisplay:10.37,2013-07-23 14:04:00,
2013-07-23 09:10:00,75.0,66.9,29.76,NW,325,9.2,9.2,76,0.00,SCT,,0.00,541.0,WeatherDisplay:10.37,2013-07-23 14:10:00,
2013-07-23 09:15:00,75.2,65.9,29.76,WNW,292,11.5,11.5,73,0.00,SCT,,0.00,554.0,WeatherDisplay:10.37,2013-07-23 14:15:00,
2013-07-23 09:20:00,75.2,66.7,29.75,WNW,297,11.5,11.5,75,0.00,SCT,,0.00,566.0,WeatherDisplay:10.37,2013-07-23 14:20:00,
2013-07-23 09:25:00,75.7,66.8,29.76,WSW,246,8.1,8.1,74,0.00,SCT,,0.00,578.0,WeatherDisplay:10.37,2013-07-23 14:25:00,
2013-07-23 09:30:00,75.8,66.1,29.75,WNW,290,12.0,12.0,72,0.00,SCT,,0.00,592.0,WeatherDisplay:10.37,2013-07-23 14:30:00,
2013-07-23 09:35:00,75.9,65.8,29.75,West,270,9.2,9.2,71,0.00,SCT,,0.00,610.0,WeatherDisplay:10.37,2013-07-23 14:35:00,
2013-07-23 09:40:00,76.1,66.4,29.76,NW,311,11.5,11.5,72,0.00,SCT,,0.00,622.0,WeatherDisplay:10.37,2013-07-23 14:40:00,
2013-07-23 09:45:00,76.3,67.0,29.75,NW,323,11.5,11.5,73,0.00,SCT,,0.00,636.0,WeatherDisplay:10.37,2013-07-23 14:45:00,
2013-07-23 09:50:00,76.8,67.1,29.75,WSW,253,11.5,11.5,72,0.00,CLR,,0.00,647.0,WeatherDisplay:10.37,2013-07-23 14:50:00,
2013-07-23 09:55:00,77.1,67.0,29.75,NW,319,9.2,9.2,71,0.00,CLR,,0.00,661.0,WeatherDisplay:10.37,2013-07-23 14:55:00,
2013-07-23 10:00:00,77.2,67.1,29.76,NW,324,9.2,9.2,71,0.00,CLR,,0.00,673.0,WeatherDisplay:10.37,2013-07-23 15:00:00,
2013-07-23 10:05:00,77.3,66.3,29.75,NW,308,11.5,11.5,69,0.00,CLR,,0.00,689.0,WeatherDisplay:10.37,2013-07-23 15:05:00,
2013-07-23 10:10:00,77.4,67.3,29.75,WNW,289,10.4,10.4,71,0.00,CLR,,0.00,703.0,WeatherDisplay:10.37,2013-07-23 15:10:00,
2013-07-23 10:15:00,77.9,67.3,29.76,NNW,329,11.0,11.0,70,0.00,CLR,,0.00,728.0,WeatherDisplay:10.37,2013-07-23 15:15:00,
2013-07-23 10:20:00,77.8,66.4,29.76,NW,312,11.5,11.5,68,0.00,CLR,,0.00,626.0,WeatherDisplay:10.37,2013-07-23 15:20:00,
2013-07-23 10:25:00,77.8,67.2,29.77,West,262,11.5,11.5,70,0.00,CLR,,0.00,624.0,WeatherDisplay:10.37,2013-07-23 15:25:00,
2013-07-23 10:30:00,78.2,68.0,29.77,WNW,286,9.2,9.2,71,0.00,CLR,,0.00,728.0,WeatherDisplay:10.37,2013-07-23 15:30:00,
2013-07-23 10:35:00,78.5,67.9,29.77,WNW,294,15.0,15.0,70,0.00,CLR,,0.00,777.0,WeatherDisplay:10.37,2013-07-23 15:35:00,
2013-07-23 10:40:00,78.5,67.1,29.77,NW,316,11.5,11.5,68,0.00,CLR,,0.00,666.0,WeatherDisplay:10.37,2013-07-23 15:40:00,
2013-07-23 10:45:00,78.4,67.4,29.76,WNW,300,8.1,8.1,69,0.00,CLR,,0.00,824.0,WeatherDisplay:10.37,2013-07-23 15:45:00,
2013-07-23 10:50:00,78.3,67.3,29.77,West,265,9.0,9.0,69,0.00,CLR,,0.00,824.0,WeatherDisplay:10.37,2013-07-23 15:50:00,
2013-07-23 10:55:00,78.7,68.1,29.77,NW,307,11.5,11.5,70,0.00,CLR,,0.00,847.0,WeatherDisplay:10.37,2013-07-23 15:55:00,
2013-07-23 11:00:00,78.8,66.9,29.77,West,278,12.7,12.7,67,0.00,CLR,,0.00,726.0,WeatherDisplay:10.37,2013-07-23 16:00:00,
2013-07-23 11:05:00,78.7,68.1,29.77,WNW,284,10.4,10.4,70,0.00,CLR,,0.00,823.0,WeatherDisplay:10.37,2013-07-23 16:05:00,
2013-07-23 11:10:00,78.9,67.9,29.77,NW,316,11.0,11.0,69,0.00,CLR,,0.00,770.0,WeatherDisplay:10.37,2013-07-23 16:10:00,
2013-07-23 11:15:00,79.0,67.5,29.77,WNW,290,13.8,13.8,68,0.00,CLR,,0.00,867.0,WeatherDisplay:10.37,2013-07-23 16:15:00,
2013-07-23 11:20:00,79.2,67.7,29.78,NW,325,13.8,13.8,68,0.00,CLR,,0.00,844.0,WeatherDisplay:10.37,2013-07-23 16:20:00,
2013-07-23 11:25:00,79.3,67.8,29.77,NW,309,11.5,11.5,68,0.00,CLR,,0.00,833.0,WeatherDisplay:10.37,2013-07-23 16:25:00,
2013-07-23 11:30:00,79.3,67.8,29.78,NW,305,12.7,12.7,68,0.00,CLR,,0.00,914.0,WeatherDisplay:10.37,2013-07-23 16:30:00,
2013-07-23 11:35:00,79.4,67.5,29.78,WSW,238,10.4,10.4,67,0.00,CLR,,0.00,853.0,WeatherDisplay:10.37,2013-07-23 16:35:00,
2013-07-23 11:40:00,79.1,67.2,29.78,WNW,302,11.5,11.5,67,0.00,CLR,,0.00,1164.0,WeatherDisplay:10.37,2013-07-23 16:40:00,
2013-07-23 11:45:00,79.4,67.9,29.78,NNW,346,10.4,10.4,68,0.00,CLR,,0.00,1041.0,WeatherDisplay:10.37,2013-07-23 16:45:00,
2013-07-23 11:50:00,79.1,67.6,29.79,NW,319,11.5,11.5,68,0.00,SCT,,0.00,297.0,WeatherDisplay:10.37,2013-07-23 16:50:00,
2013-07-23 11:55:00,78.8,67.8,29.79,NW,317,13.8,13.8,69,0.00,SCT,,0.00,355.0,WeatherDisplay:10.37,2013-07-23 16:55:00,
2013-07-23 12:00:00,79.4,68.3,29.79,NW,311,13.0,13.0,69,0.00,SCT,,0.00,399.0,WeatherDisplay:10.37,2013-07-23 17:00:00,
2013-07-23 12:05:00,79.7,68.2,29.79,NNW,338,14.0,14.0,68,0.00,SCT,,0.00,348.0,WeatherDisplay:10.37,2013-07-23 17:05:00,
2013-07-23 12:10:00,79.5,68.0,29.79,NNW,344,10.4,10.4,68,0.00,SCT,,0.00,882.0,WeatherDisplay:10.37,2013-07-23 17:10:00,
2013-07-23 12:11:00,79.6,68.5,29.79,NNW,333,11.5,11.5,69,0.00,SCT,,0.00,882.0,WeatherDisplay:10.37,2013-07-23 17:11:00,
2013-07-23 12:16:00,80.3,68.3,29.79,WNW,298,14.0,14.0,67,0.00,SCT,,0.00,963.0,WeatherDisplay:10.37,2013-07-23 17:16:00,
2013-07-23 12:21:00,80.6,68.2,29.79,NW,306,13.8,13.8,66,0.00,SCT,,0.00,900.0,WeatherDisplay:10.37,2013-07-23 17:21:00,
2013-07-23 12:26:00,80.6,68.6,29.79,North,351,13.8,13.8,67,0.00,SCT,,0.00,988.0,WeatherDisplay:10.37,2013-07-23 17:26:00,
2013-07-23 12:31:00,81.0,68.6,29.78,NW,323,14.0,14.0,66,0.00,BKN,,0.00,1016.0,WeatherDisplay:10.37,2013-07-23 17:31:00,
2013-07-23 12:36:00,81.2,68.8,29.78,NNW,340,13.8,13.8,66,0.00,BKN,,0.00,993.0,WeatherDisplay:10.37,2013-07-23 17:36:00,
2013-07-23 12:41:00,81.3,68.9,29.78,NW,321,11.5,11.5,66,0.00,BKN,,0.00,1013.0,WeatherDisplay:10.37,2013-07-23 17:41:00,
2013-07-23 12:46:00,81.3,68.4,29.78,NW,325,13.8,13.8,65,0.00,BKN,,0.00,1007.0,WeatherDisplay:10.37,2013-07-23 17:46:00,
2013-07-23 12:51:00,81.8,68.4,29.78,NNW,345,11.5,11.5,64,0.00,BKN,,0.00,1014.0,WeatherDisplay:10.37,2013-07-23 17:51:00,
2013-07-23 12:56:00,81.9,69.0,29.78,NNW,331,12.0,12.0,65,0.00,BKN,,0.00,958.0,WeatherDisplay:10.37,2013-07-23 17:56:00,
2013-07-23 13:01:00,81.8,68.9,29.78,WNW,290,11.0,11.0,65,0.00,BKN,,0.00,969.0,WeatherDisplay:10.37,2013-07-23 18:01:00,
2013-07-23 13:06:00,82.0,69.1,29.78,West,272,11.5,11.5,65,0.00,BKN,,0.00,1002.0,WeatherDisplay:10.37,2013-07-23 18:06:00,
2013-07-23 13:11:00,82.3,69.8,29.78,NNW,340,13.8,13.8,66,0.00,BKN,,0.00,1002.0,WeatherDisplay:10.37,2013-07-23 18:11:00,
2013-07-23 13:17:00,82.5,69.1,29.78,WNW,302,13.8,13.8,64,0.00,BKN,,0.00,990.0,WeatherDisplay:10.37,2013-07-23 18:17:00,
2013-07-23 13:22:00,82.7,68.8,29.78,North,355,12.7,12.7,63,0.00,BKN,,0.00,1027.0,WeatherDisplay:10.37,2013-07-23 18:22:00,
2013-07-23 13:27:00,82.4,68.5,29.78,NW,313,13.8,13.8,63,0.00,BKN,,0.00,297.0,WeatherDisplay:10.37,2013-07-23 18:27:00,
2013-07-23 13:32:00,82.1,68.7,29.78,NW,318,15.0,15.0,64,0.00,BKN,,0.00,1002.0,WeatherDisplay:10.37,2013-07-23 18:32:00,
2013-07-23 13:37:00,81.2,67.9,29.78,NNW,342,10.0,10.0,64,0.00,BKN,,0.00,285.0,WeatherDisplay:10.37,2013-07-23 18:37:00,
2013-07-23 13:42:00,80.5,67.6,29.78,NW,315,13.0,13.0,65,0.00,BKN,,0.00,315.0,WeatherDisplay:10.37,2013-07-23 18:42:00,
2013-07-23 13:47:00,80.6,69.1,29.78,North,349,11.5,11.5,68,0.00,BKN,,0.00,990.0,WeatherDisplay:10.37,2013-07-23 18:47:00,
2013-07-23 13:53:00,80.0,68.1,29.78,North,355,10.4,10.4,67,0.00,BKN,,0.00,243.0,WeatherDisplay:10.37,2013-07-23 18:53:00,
2013-07-23 13:58:00,79.4,68.8,29.78,North,360,10.0,10.0,70,0.00,BKN,,0.00,555.0,WeatherDisplay:10.37,2013-07-23 18:58:00,
2013-07-23 14:03:00,79.7,68.2,29.78,NE,38,8.1,8.1,68,0.00,SCT,,0.00,376.0,WeatherDisplay:10.37,2013-07-23 19:03:00,
2013-07-23 14:08:00,80.7,69.2,29.78,NE,38,7.0,7.0,68,0.00,SCT,,0.00,990.0,WeatherDisplay:10.37,2013-07-23 19:08:00,
2013-07-23 14:14:00,81.4,69.4,29.78,North,350,11.5,11.5,67,0.00,SCT,,0.00,229.0,WeatherDisplay:10.37,2013-07-23 19:14:00,
2013-07-23 14:20:00,80.8,68.8,29.78,NNW,331,11.5,11.5,67,0.00,SCT,,0.00,461.0,WeatherDisplay:10.37,2013-07-23 19:20:00,
2013-07-23 14:25:00,81.1,69.1,29.78,North,355,9.2,9.2,67,0.00,SCT,,0.00,946.0,WeatherDisplay:10.37,2013-07-23 19:25:00,
2013-07-23 14:30:00,81.1,68.2,29.78,NNE,15,11.5,11.5,65,0.00,SCT,,0.00,341.0,WeatherDisplay:10.37,2013-07-23 19:30:00,
2013-07-23 14:35:00,80.9,68.0,29.78,North,355,9.2,9.2,65,0.00,CLR,,0.00,332.0,WeatherDisplay:10.37,2013-07-23 19:35:00,
2013-07-23 14:41:00,81.2,68.8,29.78,NNE,18,11.5,11.5,66,0.00,CLR,,0.00,777.0,WeatherDisplay:10.37,2013-07-23 19:41:00,
2013-07-23 14:47:00,80.6,68.2,29.79,NNE,28,13.0,13.0,66,0.00,SCT,,0.00,410.0,WeatherDisplay:10.37,2013-07-23 19:47:00,
2013-07-23 14:52:00,79.6,66.8,29.78,NE,44,13.8,13.8,65,0.00,SCT,,0.00,255.0,WeatherDisplay:10.37,2013-07-23 19:52:00,
2013-07-23 14:58:00,77.9,66.5,29.79,North,11,12.7,12.7,68,0.00,SCT,,0.00,139.0,WeatherDisplay:10.37,2013-07-23 19:58:00,
2013-07-23 15:03:00,77.2,66.7,29.79,NNE,26,9.2,9.2,70,0.00,SCT,,0.00,297.0,WeatherDisplay:10.37,2013-07-23 20:03:00,
2013-07-23 15:09:00,77.5,67.4,29.78,NNE,25,11.5,11.5,71,0.00,SCT,,0.00,784.0,WeatherDisplay:10.37,2013-07-23 20:09:00,
2013-07-23 15:14:00,78.4,66.5,29.78,NNE,12,13.0,13.0,67,0.00,SCT,,0.00,313.0,WeatherDisplay:10.37,2013-07-23 20:14:00,
2013-07-23 15:19:00,78.2,66.8,29.78,North,5,9.2,9.2,68,0.00,SCT,,0.00,288.0,WeatherDisplay:10.37,2013-07-23 20:19:00,
2013-07-23 15:25:00,78.3,67.3,29.79,NNE,21,9.2,9.2,69,0.00,SCT,,0.00,269.0,WeatherDisplay:10.37,2013-07-23 20:25:00,
2013-07-23 15:30:00,78.4,67.4,29.78,North,360,8.1,8.1,69,0.00,SCT,,0.00,424.0,WeatherDisplay:10.37,2013-07-23 20:30:00,
2013-07-23 15:35:00,78.8,66.5,29.78,NNW,329,12.0,12.0,66,0.00,OVC,,0.00,281.0,WeatherDisplay:10.37,2013-07-23 20:35:00,
2013-07-23 15:41:00,79.2,66.0,29.78,North,349,13.0,13.0,64,0.00,OVC,,0.00,388.0,WeatherDisplay:10.37,2013-07-23 20:41:00,
2013-07-23 15:46:00,79.9,67.1,29.78,North,360,11.5,11.5,65,0.00,BKN,,0.00,687.0,WeatherDisplay:10.37,2013-07-23 20:46:00,
2013-07-23 15:52:00,80.5,66.3,29.79,North,5,12.7,12.7,62,0.00,BKN,,0.00,492.0,WeatherDisplay:10.37,2013-07-23 20:52:00,
2013-07-23 15:58:00,79.3,65.1,29.79,NE,42,12.7,12.7,62,0.00,BKN,,0.00,316.0,WeatherDisplay:10.37,2013-07-23 20:58:00,
2013-07-23 16:03:00,78.7,65.0,29.79,NE,48,11.5,11.5,63,0.00,BKN,,0.00,385.0,WeatherDisplay:10.37,2013-07-23 21:03:00,
2013-07-23 16:08:00,78.0,65.3,29.79,NNE,19,13.8,13.8,65,0.00,BKN,,0.00,315.0,WeatherDisplay:10.37,2013-07-23 21:08:00,
2013-07-23 16:13:00,77.6,64.9,29.79,NE,39,13.0,13.0,65,0.00,BKN,,0.00,276.0,WeatherDisplay:10.37,2013-07-23 21:13:00,
2013-07-23 16:18:00,77.1,64.4,29.79,NNE,24,13.8,13.8,65,0.00,BKN,,0.00,244.0,WeatherDisplay:10.37,2013-07-23 21:18:00,
2013-07-23 16:23:00,76.5,64.3,29.79,North,5,12.7,12.7,66,0.00,BKN,,0.00,225.0,WeatherDisplay:10.37,2013-07-23 21:23:00,
2013-07-23 16:28:00,76.2,64.4,29.80,NNE,30,16.1,16.1,67,0.00,BKN,,0.00,264.0,WeatherDisplay:10.37,2013-07-23 21:28:00,
2013-07-23 16:34:00,75.8,64.5,29.80,NNE,30,13.0,13.0,68,0.00,BKN,,0.00,348.0,WeatherDisplay:10.37,2013-07-23 21:34:00,
2013-07-23 16:39:00,75.9,64.6,29.80,NE,43,16.0,16.0,68,0.00,BKN,,0.00,285.0,WeatherDisplay:10.37,2013-07-23 21:39:00,
2013-07-23 16:44:00,75.8,63.6,29.80,North,5,16.1,16.1,66,0.00,BKN,,0.00,251.0,WeatherDisplay:10.37,2013-07-23 21:44:00,
2013-07-23 16:49:00,75.4,63.2,29.80,NNE,28,13.8,13.8,66,0.00,SCT,,0.00,255.0,WeatherDisplay:10.37,2013-07-23 21:49:00,
2013-07-23 16:54:00,75.3,64.0,29.81,NNE,16,11.5,11.5,68,0.00,SCT,,0.00,415.0,WeatherDisplay:10.37,2013-07-23 21:54:00,
2013-07-23 17:00:00,75.4,63.7,29.81,NNE,19,13.8,13.8,67,0.00,SCT,,0.00,322.0,WeatherDisplay:10.37,2013-07-23 22:00:00,
2013-07-23 17:05:00,75.8,64.5,29.81,NNE,15,11.5,11.5,68,0.00,BKN,,0.00,512.0,WeatherDisplay:10.37,2013-07-23 22:05:00,
2013-07-23 17:10:00,76.3,64.1,29.81,NE,42,13.8,13.8,66,0.00,BKN,,0.00,274.0,WeatherDisplay:10.37,2013-07-23 22:10:00,
2013-07-23 17:15:00,76.0,63.4,29.81,NNE,17,12.7,12.7,65,0.00,BKN,,0.00,422.0,WeatherDisplay:10.37,2013-07-23 22:15:00,
2013-07-23 17:20:00,75.8,64.1,29.81,ENE,59,15.0,15.0,67,0.00,BKN,,0.00,339.0,WeatherDisplay:10.37,2013-07-23 22:20:00,
2013-07-23 17:26:00,75.3,63.6,29.80,NNE,22,13.8,13.8,67,0.00,BKN,,0.00,353.0,WeatherDisplay:10.37,2013-07-23 22:26:00,
2013-07-23 17:31:00,75.2,63.9,29.80,North,11,15.0,15.0,68,0.00,BKN,,0.00,315.0,WeatherDisplay:10.37,2013-07-23 22:31:00,
2013-07-23 17:36:00,74.6,62.9,29.80,NE,39,15.0,15.0,67,0.00,BKN,,0.00,272.0,WeatherDisplay:10.37,2013-07-23 22:36:00,
2013-07-23 17:42:00,74.1,62.9,29.81,NNE,27,18.4,18.4,68,0.00,BKN,,0.00,318.0,WeatherDisplay:10.37,2013-07-23 22:42:00,
2013-07-23 17:47:00,73.9,63.1,29.81,NNE,28,15.0,15.0,69,0.00,SCT,,0.00,308.0,WeatherDisplay:10.37,2013-07-23 22:47:00,
2013-07-23 17:52:00,73.8,63.0,29.81,ENE,61,18.4,18.4,69,0.00,SCT,,0.00,251.0,WeatherDisplay:10.37,2013-07-23 22:52:00,
2013-07-23 17:57:00,73.4,63.0,29.82,North,5,15.0,15.0,70,0.00,SCT,,0.00,353.0,WeatherDisplay:10.37,2013-07-23 22:57:00,
2013-07-23 18:02:00,73.2,62.8,29.82,North,10,14.0,14.0,70,0.00,CLR,,0.00,236.0,WeatherDisplay:10.37,2013-07-23 23:02:00,
2013-07-23 18:07:00,72.9,62.5,29.82,NNE,15,13.8,13.8,70,0.00,CLR,,0.00,260.0,WeatherDisplay:10.37,2013-07-23 23:07:00,
2013-07-23 18:13:00,72.9,62.1,29.82,NE,42,17.3,17.3,69,0.00,CLR,,0.00,350.0,WeatherDisplay:10.37,2013-07-23 23:13:00,
2013-07-23 18:18:00,73.0,62.6,29.82,NNE,32,16.0,16.0,70,0.00,CLR,,0.00,332.0,WeatherDisplay:10.37,2013-07-23 23:18:00,
2013-07-23 18:23:00,72.7,61.5,29.82,NNE,32,18.4,18.4,68,0.00,CLR,,0.00,316.0,WeatherDisplay:10.37,2013-07-23 23:23:00,
2013-07-23 18:29:00,72.6,61.8,29.82,NNE,31,19.6,19.6,69,0.00,CLR,,0.00,350.0,WeatherDisplay:10.37,2013-07-23 23:29:00,
2013-07-23 18:34:00,72.3,61.6,29.83,NE,34,19.6,19.6,69,0.00,SCT,,0.00,192.0,WeatherDisplay:10.37,2013-07-23 23:34:00,
2013-07-23 18:39:00,71.8,61.5,29.83,NNE,17,18.4,18.4,70,0.00,SCT,,0.00,193.0,WeatherDisplay:10.37,2013-07-23 23:39:00,
2013-07-23 18:44:00,71.4,61.5,29.83,NNE,17,16.1,16.1,71,0.00,SCT,,0.00,146.0,WeatherDisplay:10.37,2013-07-23 23:44:00,
2013-07-23 18:49:00,70.8,60.5,29.83,NE,38,18.0,18.0,70,0.00,SCT,,0.00,211.0,WeatherDisplay:10.37,2013-07-23 23:49:00,
2013-07-23 18:54:00,70.4,60.5,29.83,NE,42,13.0,13.0,71,0.00,SCT,,0.00,160.0,WeatherDisplay:10.37,2013-07-23 23:54:00,
2013-07-23 18:59:00,70.0,60.2,29.83,NNE,20,16.0,16.0,71,0.00,SCT,,0.00,125.0,WeatherDisplay:10.37,2013-07-23 23:59:00,
2013-07-23 19:05:00,69.5,60.1,29.83,North,5,17.3,17.3,72,0.00,BKN,,0.00,114.0,WeatherDisplay:10.37,2013-07-24 00:05:00,
2013-07-23 19:10:00,69.0,59.6,29.83,NNE,16,20.0,20.0,72,0.00,BKN,,0.00,118.0,WeatherDisplay:10.37,2013-07-24 00:10:00,
2013-07-23 19:15:00,68.6,59.2,29.83,NE,37,15.0,15.0,72,0.00,BKN,,0.00,83.0,WeatherDisplay:10.37,2013-07-24 00:15:00,
2013-07-23 19:20:00,68.3,59.3,29.84,NNE,15,15.0,15.0,73,0.00,SCT,,0.00,46.0,WeatherDisplay:10.37,2013-07-24 00:20:00,
2013-07-23 19:25:00,67.9,58.9,29.84,NNE,33,19.6,19.6,73,0.00,SCT,,0.00,39.0,WeatherDisplay:10.37,2013-07-24 00:25:00,
2013-07-23 19:30:00,67.4,58.8,29.84,NE,42,12.0,12.0,74,0.00,SCT,,0.00,33.0,WeatherDisplay:10.37,2013-07-24 00:30:00,
2013-07-23 19:36:00,67.0,58.4,29.84,NNE,28,18.4,18.4,74,0.00,BKN,,0.00,26.0,WeatherDisplay:10.37,2013-07-24 00:36:00,
2013-07-23 19:41:00,66.6,58.1,29.84,NE,40,11.5,11.5,74,0.00,BKN,,0.00,23.0,WeatherDisplay:10.37,2013-07-24 00:41:00,
2013-07-23 19:47:00,66.2,58.0,29.85,NE,45,13.0,13.0,75,0.00,BKN,,0.00,18.0,WeatherDisplay:10.37,2013-07-24 00:47:00,
2013-07-23 19:52:00,65.8,58.0,29.85,NNE,30,9.2,9.2,76,0.00,BKN,,0.00,16.0,WeatherDisplay:10.37,2013-07-24 00:52:00,
2013-07-23 19:57:00,65.6,57.8,29.85,North,11,8.1,8.1,76,0.00,BKN,,0.00,12.0,WeatherDisplay:10.37,2013-07-24 00:57:00,
2013-07-23 20:05:00,65.2,57.8,29.85,NNE,33,11.5,11.5,77,0.00,BKN,,0.00,9.0,WeatherDisplay:10.37,2013-07-24 01:05:00,
2013-07-23 20:10:00,65.0,57.6,29.85,NNE,18,9.2,9.2,77,0.00,BKN,,0.00,5.0,WeatherDisplay:10.37,2013-07-24 01:10:00,
2013-07-23 20:15:00,64.7,57.0,29.86,NNE,32,10.4,10.4,76,0.00,BKN,,0.00,0.0,WeatherDisplay:10.37,2013-07-24 01:15:00,
2013-07-23 20:21:00,64.5,56.8,29.86,NNE,19,10.4,10.4,76,0.00,SCT,,0.00,0.0,WeatherDisplay:10.37,2013-07-24 01:21:00,
2013-07-23 20:27:00,64.3,56.9,29.86,NNE,24,8.1,8.1,77,0.00,SCT,,0.00,0.0,WeatherDisplay:10.37,2013-07-24 01:27:00,
2013-07-23 20:32:00,64.1,56.7,29.87,NE,44,12.7,12.7,77,0.00,SCT,,0.00,0.0,WeatherDisplay:10.37,2013-07-24 01:32:00,
2013-07-23 20:37:00,64.0,56.6,29.87,NE,36,12.0,12.0,77,0.00,SCT,,0.00,0.0,WeatherDisplay:10.37,2013-07-24 01:37:00,
2013-07-23 20:42:00,63.7,56.4,29.87,NNE,26,9.2,9.2,77,0.00,SCT,,0.00,0.0,WeatherDisplay:10.37,2013-07-24 01:42:00,
2013-07-23 20:47:00,63.4,56.4,29.87,NNE,16,9.0,9.0,78,0.00,SCT,,0.00,0.0,WeatherDisplay:10.37,2013-07-24 01:47:00,
2013-07-23 20:52:00,63.3,56.3,29.88,North,5,9.2,9.2,78,0.00,SCT,,0.00,0.0,WeatherDisplay:10.37,2013-07-24 01:52:00,
2013-07-23 20:58:00,63.2,56.6,29.88,North,9,9.2,9.2,79,0.00,SCT,,0.00,0.0,WeatherDisplay:10.37,2013-07-24 01:58:00,
2013-07-23 21:03:00,63.1,56.5,29.89,North,5,10.4,10.4,79,0.00,SCT,,0.00,0.0,WeatherDisplay:10.37,2013-07-24 02:03:00,
2013-07-23 21:08:00,63.0,56.4,29.89,NNE,28,10.4,10.4,79,0.00,SCT,,0.00,0.0,WeatherDisplay:10.37,2013-07-24 02:08:00,
2013-07-23 21:13:00,62.9,56.3,29.89,NNE,26,8.0,8.0,79,0.00,SCT,,0.00,0.0,WeatherDisplay:10.37,2013-07-24 02:13:00,
2013-07-23 21:19:00,62.6,56.0,29.90,NNE,23,8.1,8.1,79,0.00,CLR,,0.00,0.0,WeatherDisplay:10.37,2013-07-24 02:19:00,
2013-07-23 21:25:00,62.3,56.0,29.90,North,5,6.0,6.0,80,0.00,CLR,,0.00,0.0,WeatherDisplay:10.37,2013-07-24 02:25:00,
2013-07-23 21:30:00,62.0,56.1,29.90,NNE,26,8.1,8.1,81,0.00,CLR,,0.00,0.0,WeatherDisplay:10.37,2013-07-24 02:30:00,
2013-07-23 21:36:00,61.7,55.8,29.90,NNE,15,6.9,6.9,81,0.00,CLR,,0.00,0.0,WeatherDisplay:10.37,2013-07-24 02:36:00,
2013-07-23 21:41:00,61.4,55.9,29.91,NNE,15,5.8,5.8,82,0.00,CLR,,0.00,0.0,WeatherDisplay:10.37,2013-07-24 02:41:00,
2013-07-23 21:47:00,61.1,55.6,29.91,North,5,4.0,4.0,82,0.00,CLR,,0.00,0.0,WeatherDisplay:10.37,2013-07-24 02:47:00,
2013-07-23 21:52:00,60.8,55.6,29.91,North,5,3.5,3.5,83,0.00,CLR,,0.00,0.0,WeatherDisplay:10.37,2013-07-24 02:52:00,
2013-07-23 21:57:00,60.4,55.2,29.91,NNE,17,3.5,3.5,83,0.00,CLR,,0.00,0.0,WeatherDisplay:10.37,2013-07-24 02:57:00,
2013-07-23 22:03:00,60.0,55.2,29.91,NNE,18,3.5,3.5,84,0.00,CLR,,0.00,0.0,WeatherDisplay:10.37,2013-07-24 03:03:00,
2013-07-23 22:09:00,59.7,54.9,29.91,North,5,4.0,4.0,84,0.00,CLR,,0.00,0.0,WeatherDisplay:10.37,2013-07-24 03:09:00,
2013-07-23 22:14:00,59.5,55.0,29.92,NNE,20,3.5,3.5,85,0.00,CLR,,0.00,0.0,WeatherDisplay:10.37,2013-07-24 03:14:00,
2013-07-23 22:19:00,59.3,54.8,29.92,NNE,13,4.6,4.6,85,0.00,CLR,,0.00,0.0,WeatherDisplay:10.37,2013-07-24 03:19:00,
2013-07-23 22:24:00,59.2,54.7,29.92,NNE,22,4.6,4.6,85,0.00,CLR,,0.00,0.0,WeatherDisplay:10.37,2013-07-24 03:24:00,
2013-07-23 22:30:00,59.0,54.5,29.92,NNE,21,2.3,2.3,85,0.00,CLR,,0.00,0.0,WeatherDisplay:10.37,2013-07-24 03:30:00,
2013-07-23 22:35:00,58.8,54.3,29.93,NNE,21,3.0,3.0,85,0.00,CLR,,0.00,0.0,WeatherDisplay:10.37,2013-07-24 03:35:00,
2013-07-23 22:40:00,58.6,54.1,29.93,NNE,21,2.3,2.3,85,0.00,CLR,,0.00,0.0,WeatherDisplay:10.37,2013-07-24 03:40:00,
2013-07-23 22:45:00,58.4,54.2,29.93,NNE,21,4.0,4.0,86,0.00,CLR,,0.00,0.0,WeatherDisplay:10.37,2013-07-24 03:45:00,
2013-07-23 22:50:00,58.2,54.0,29.93,NNE,26,3.5,3.5,86,0.00,CLR,,0.00,0.0,WeatherDisplay:10.37,2013-07-24 03:50:00,
2013-07-23 22:55:00,58.0,54.2,29.93,North,11,3.5,3.5,87,0.00,CLR,,0.00,0.0,WeatherDisplay:10.37,2013-07-24 03:55:00,
2013-07-23 23:00:00,57.8,54.0,29.93,North,9,4.0,4.0,87,0.00,CLR,,0.00,0.0,WeatherDisplay:10.37,2013-07-24 04:00:00,
2013-07-23 23:01:00,57.8,54.0,29.93,North,10,4.0,4.0,87,0.00,CLR,,0.00,0.0,WeatherDisplay:10.37,2013-07-24 04:01:00,
2013-07-23 23:02:00,57.7,53.9,29.93,North,10,3.5,3.5,87,0.00,CLR,,0.00,0.0,WeatherDisplay:10.37,2013-07-24 04:02:00,
2013-07-23 23:07:00,57.7,54.2,29.94,North,5,4.6,4.6,88,0.00,CLR,,0.00,0.0,WeatherDisplay:10.37,2013-07-24 04:07:00,
2013-07-23 23:12:00,57.7,54.2,29.94,North,11,4.6,4.6,88,0.00,CLR,,0.00,0.0,WeatherDisplay:10.37,2013-07-24 04:12:00,
2013-07-23 23:17:00,57.7,54.2,29.94,North,355,5.0,5.0,88,0.00,CLR,,0.00,0.0,WeatherDisplay:10.37,2013-07-24 04:17:00,
2013-07-23 23:22:00,58.0,54.5,29.94,North,11,5.8,5.8,88,0.00,CLR,,0.00,0.0,WeatherDisplay:10.37,2013-07-24 04:22:00,
2013-07-23 23:27:00,58.2,54.3,29.94,North,5,4.6,4.6,87,0.00,CLR,,0.00,0.0,WeatherDisplay:10.37,2013-07-24 04:27:00,
2013-07-23 23:32:00,58.4,54.5,29.94,North,355,5.8,5.8,87,0.00,CLR,,0.00,0.0,WeatherDisplay:10.37,2013-07-24 04:32:00,
2013-07-23 23:37:00,58.6,54.4,29.94,North,355,4.6,4.6,86,0.00,CLR,,0.00,0.0,WeatherDisplay:10.37,2013-07-24 04:37:00,
2013-07-23 23:42:00,58.7,54.5,29.94,North,349,6.0,6.0,86,0.00,CLR,,0.00,0.0,WeatherDisplay:10.37,2013-07-24 04:42:00,
2013-07-23 23:47:00,58.8,54.6,29.95,NNW,345,5.8,5.8,86,0.00,CLR,,0.00,0.0,WeatherDisplay:10.37,2013-07-24 04:47:00,
2013-07-23 23:52:00,58.9,54.4,29.94,NNE,13,3.5,3.5,85,0.00,CLR,,0.00,0.0,WeatherDisplay:10.37,2013-07-24 04:52:00,
2013-07-23 23:57:00,58.5,54.3,29.94,NNE,15,3.5,3.5,86,0.00,CLR,,0.00,0.0,WeatherDisplay:10.37,2013-07-24 04:57:00,